STARLINK-35364, 65840

Orbit data source: Space-Track

STARLINK-35364, 65840 is a payload satellite owned by SpaceX/Seattle (US) in LEO that was launched on Mon, 29 Sep 2025 UTC via an FALCON 9 launch vehicle from the Air Force Western Test Range (AFWTR). Payload-class satellites include a variety of spacecraft equipped with specific instruments for various scientific and technological missions. These include communications satellites like Starlink; space stations such as the ISS; scientific satellites like the Hubble; Earth observation satellites from companies like Planet Labs, Umbra, and HawkEye 360; GPS; miniature CubeSats for education and research; and military/defense satellites.

Loading next visibility...
Identifier
65840, 2025-221T
Orbit
LEO
Country
Flag of USUS
Related business
Manufacturer
SpaceX/Seattle
Mission
Operational Commercial Communications
Bus & Motor
STARLINK V2MO, Unknown motor
Mass
575 kg wet, ~530 kg dry
Launch date (UTC)
2025-09-29 (2 months ago)
Launch vehicle
FALCON 9
Launch site
Air Force Western Test Range (AFWTR)
Object type
Payload
Rocket body
Debris
Shape & HBR
Box + 2 Pan, 17.7 m
Radar Cross Section
36.964 m²

Expand to show TLE details & history
Last TLE update: 14 hours ago

TLE from 14 hours ago
0 STARLINK-35364
1 65840U 25221T   25340.88529129  .00042989  00000-0  14549-2 0  9990
2 65840  53.1589 159.4793 0000996  86.5342 273.5773 15.30207369 10524
Epoch: 2025-12-06T21:14Z
TLE epoch observation values (Epoch: 2025-12-06T21:14:49.167Z)
Latitude
0.00001°
Longitude
124.86783°
Altitude
476.05 km
Speed
7.629 km/s
True Right ascension
10h 37m 55s
True Declination
0° 00' 00"
Sunlit
Object was in daylight at epoch
Visualization orbit readout
Latitude
Unknown
Longitude
Unknown
Altitude
Unknown
Speed
Unknown
Apparent Right ascension
Unknown
Apparent Declination
Unknown
Sunlit
N/A
Visualization observer readout
Local Sidereal Time
09:11:48
Azimuth
Unknown
Elevation
Unknown
Doppler factor
Unknown
Orbital elements
Apogee altitude
476.132 km
Perigee altitude
474.767 km
Semi-major axis
6,853.587 km
Eccentricity
0.0001
Inclination
53.1589°
RAAN
159.4793°
Arg. of periapsis
86.5342°
True anomaly
273.56591°
Mean anomaly
273.5773°
Eccentric anomaly
273.5716°
Mean motion
3.82531 °/min
Orbital period
94.11 mins
BSTAR
0.0014549
Loading maneuver chart data...
Computing Atmospheric mass density...
Loading historical data...
Loading historical data...
Loading historical data...
Loading historical data...
Loading historical data...
Loading historical data...
Loading historical data...

Documentation

Showing up to 5 results
|